TimeEDT,TemperatureF,Dew PointF,Humidity,Sea Level PressureIn,VisibilityMPH,Wind Direction,Wind SpeedMPH,Gust SpeedMPH,PrecipitationIn,Events,Conditions,WindDirDegrees,DateUTC
12:51 AM,68.0,64.4,88,30.02,10.0,NNE,9.2,-,N/A,,Overcast,30,2013-10-09 04:51:00
12:53 AM,68.0,64.0,87,30.01,10.0,NNE,9.2,-,N/A,,Overcast,30,2013-10-09 04:53:00
1:53 AM,66.9,63.0,87,30.01,10.0,NNE,5.8,-,N/A,,Overcast,20,2013-10-09 05:53:00
2:53 AM,66.0,63.0,90,30.02,6.0,North,6.9,-,N/A,,Overcast,10,2013-10-09 06:53:00
3:53 AM,64.9,62.1,90,30.02,6.0,North,6.9,-,N/A,,Overcast,10,2013-10-09 07:53:00
4:31 AM,64.4,62.6,94,30.01,6.0,North,9.2,-,N/A,,Overcast,360,2013-10-09 08:31:00
4:42 AM,64.4,62.6,94,30.01,10.0,NNE,6.9,-,N/A,,Overcast,20,2013-10-09 08:42:00
4:53 AM,64.9,62.1,90,30.01,10.0,NNE,9.2,-,N/A,,Overcast,20,2013-10-09 08:53:00
5:53 AM,64.0,61.0,90,30.02,10.0,North,5.8,-,N/A,,Overcast,10,2013-10-09 09:53:00
6:53 AM,63.0,60.1,90,30.05,6.0,NNE,8.1,-,N/A,,Overcast,20,2013-10-09 10:53:00
7:53 AM,62.1,59.0,90,30.06,8.0,North,5.8,-,N/A,,Overcast,360,2013-10-09 11:53:00
8:53 AM,62.1,59.0,90,30.07,10.0,North,11.5,-,N/A,,Overcast,360,2013-10-09 12:53:00
9:53 AM,64.0,59.0,84,30.09,10.0,Variable,5.8,-,N/A,,Overcast,0,2013-10-09 13:53:00
10:32 AM,64.4,60.8,88,30.10,10.0,Variable,6.9,-,N/A,,Overcast,0,2013-10-09 14:32:00
10:53 AM,66.0,60.1,81,30.10,10.0,North,9.2,-,N/A,,Overcast,10,2013-10-09 14:53:00
11:53 AM,66.9,60.1,79,30.10,10.0,North,9.2,-,N/A,,Overcast,10,2013-10-09 15:53:00
12:53 PM,69.1,61.0,75,30.09,10.0,NNE,8.1,-,N/A,,Overcast,20,2013-10-09 16:53:00
1:53 PM,71.1,62.1,73,30.08,10.0,North,9.2,-,N/A,,Overcast,360,2013-10-09 17:53:00
2:53 PM,72.0,62.1,71,30.06,10.0,NNE,10.4,-,N/A,,Overcast,30,2013-10-09 18:53:00
3:53 PM,71.1,62.1,73,30.06,10.0,North,6.9,-,N/A,,Overcast,10,2013-10-09 19:53:00
4:53 PM,71.1,61.0,70,30.06,10.0,North,8.1,-,N/A,,Overcast,360,2013-10-09 20:53:00
5:53 PM,70.0,61.0,73,30.06,10.0,NE,6.9,-,N/A,,Overcast,40,2013-10-09 21:53:00
6:21 PM,69.8,60.8,73,30.06,10.0,NE,6.9,-,N/A,,Scattered Clouds,40,2013-10-09 22:21:00
6:53 PM,68.0,61.0,78,30.06,10.0,NNE,3.5,-,N/A,,Clear,20,2013-10-09 22:53:00
7:53 PM,66.0,61.0,84,30.06,10.0,Calm,Calm,-,N/A,,Clear,0,2013-10-09 23:53:00
8:53 PM,62.1,60.1,93,30.06,10.0,Calm,Calm,-,N/A,,Clear,0,2013-10-10 00:53:00
9:53 PM,62.1,60.1,93,30.07,10.0,Calm,Calm,-,N/A,,Clear,0,2013-10-10 01:53:00
10:53 PM,61.0,59.0,93,30.09,9.0,Calm,Calm,-,N/A,,Clear,0,2013-10-10 02:53:00
11:53 PM,59.0,57.0,93,30.08,10.0,Calm,Calm,-,N/A,,Clear,0,2013-10-10 03:53:00